{"data":{"norad_id":57310,"intl_designator":"2023-096W","name":"STARLINK-30184","alt_names":[],"object_type":"PAYLOAD","status":"ACTIVE","operator":null,"country":"US","launch_date":"2023-07-10","launch_site_code":"AFETR","launch_vehicle":null,"mission":null,"orbit_class":"UNKNOWN","rcs_meters":null,"size_class":null,"mass_kg":null,"dimensions":null,"purposes":["comms"],"wikipedia_slug":null,"has_3d_model":false,"image_url":null,"decayed_at":null,"tle_current":{"epoch":"2026-09-20T00:53:13.988544Z","epoch_age_seconds":164317,"freshness":"FRESH","line1":"1 57310U 23096W   26263.03696746  .00000402  00000+0  24126-4 0  9990","line2":"2 57310  43.0018 176.8967 0001345 262.7150  97.3549 15.27579433176775","mean_motion":15.27579433,"eccentricity":0.0001345,"inclination_deg":43.0018,"raan_deg":176.8967,"arg_perigee_deg":262.715,"mean_anomaly_deg":97.3549,"bstar":2.4126e-5,"rev_number":17677,"period_min":94.266783703156,"perigee_km":482.12796408388,"apogee_km":483.97362360043,"semimajor_km":6861.1877938422,"source":"CELESTRAK","updated_at":"2026-09-21T09:00:33.595495Z"}}}